Merced, CA

11:05 PM PST on February 13, 2016 (GMT -0800)
Castle

Weather History for KMER - September, 2013

Change the Weather History Date:

Thursday, September 5, 2013

  Actual Average (KMCE) Record (KMCE)
Temperature  
Mean Temperature 75 °F 74 °F  
Max Temperature 91 °F 91 °F 101 °F (2008)
Min Temperature 59 °F 58 °F 48 °F (2000)
Degree Days  
Heating Degree Days 0    
Month to date heating degree days  
Since 1 July heating degree days  
Cooling Degree Days 10    
Month to date cooling degree days  
Year to date cooling degree days  
Growing Degree Days 25 (Base 50)    
Moisture  
Dew Point 51 °F    
Average Humidity 58    
Maximum Humidity 88    
Minimum Humidity 18    
Precipitation  
Precipitation 0.00 in 0.00 in 0.41 in (1978)
Month to date precipitation 0.01  
Year to date precipitation 8.71  
Snow  
Snow 0.00 in - - ()
Month to date snowfall  
Since 1 July snowfall  
Since 1 September snowfall  
Snow Depth -    
Sea Level Pressure  
Sea Level Pressure 29.94 in    
Wind  
Wind Speed 7 mph (North)    
Max Wind Speed 14 mph    
Max Gust Speed -    
Visibility 10 miles    
Events      
T = Trace of Precipitation, MM = Missing Value Source: NWS Daily Summary

Daily Weather History Graph

Daily Weather History Graph

Search for Another Location

Airport or City:

Trip Planner

Search our weather history database for the weather conditions in past years. The results will help you decide how hot, cold, wet, or windy it might be!

Date:

Astronomy

Sep. 05, 2013 Rise Set
Actual Time 6:36 AM PDT 7:24 PM PDT
Civil Twilight 6:09 AM PDT 7:51 PM PDT
Nautical Twilight 5:38 AM PDT 8:22 PM PDT
Astronomical Twilight 5:06 AM PDT 8:54 PM PDT
Moon 6:51 AM PDT (9/5) 7:21 PM PDT (9/5)
Length of Visible Light 13h 41m
Length of Day
12h 48m
New Moon, 0% of the Moon is Illuminated
Sep 5
New Moon
Sep 12
First Quarter
Sep 19
Full
Sep 26
Last Quarter
Oct 4
New

Hourly Weather History & Observations

Time (PDT) Temp. Dew Point Humidity Pressure Visibility Wind Dir Wind Speed Gust Speed Precip Events Conditions
12:15 AM 66.2 °F 51.8 °F 60% 29.95 in 10.0 mi North 6.9 mph - N/A   Clear
12:35 AM 64.4 °F 53.6 °F 68% 29.95 in 10.0 mi North 6.9 mph - N/A   Clear
12:55 AM 64.4 °F 53.6 °F 68% 29.94 in 10.0 mi North - - N/A   Clear
1:15 AM 64.4 °F 53.6 °F 68% 29.94 in 10.0 mi NNE 5.8 mph - N/A   Clear
1:35 AM 64.4 °F 53.6 °F 68% 29.94 in 10.0 mi NNE 5.8 mph - N/A   Clear
1:55 AM 64.4 °F 53.6 °F 68% 29.94 in 10.0 mi NNE 4.6 mph - N/A   Clear
2:15 AM 64.4 °F 51.8 °F 64% 29.93 in 10.0 mi NNE 4.6 mph - N/A   Clear
2:35 AM 60.8 °F 51.8 °F 72% 29.93 in 10.0 mi NE 3.5 mph - N/A   Clear
2:55 AM 62.6 °F 53.6 °F 72% 29.93 in 10.0 mi Calm Calm - N/A   Clear
3:15 AM 60.8 °F 51.8 °F 72% 29.92 in 10.0 mi North 4.6 mph - N/A   Clear
3:35 AM 60.8 °F 53.6 °F 77% 29.92 in 10.0 mi NNE 3.5 mph - N/A   Clear
3:55 AM 60.8 °F 53.6 °F 77% 29.92 in 10.0 mi North - - N/A   Clear
4:15 AM 62.6 °F 53.6 °F 72% 29.93 in 10.0 mi North 4.6 mph - N/A   Clear
4:35 AM 60.8 °F 53.6 °F 77% 29.93 in 10.0 mi North 6.9 mph - N/A   Clear
4:55 AM 60.8 °F 53.6 °F 77% 29.93 in 10.0 mi North - - N/A   Clear
5:15 AM 60.8 °F 53.6 °F 77% 29.93 in 10.0 mi North 6.9 mph - N/A   Clear
5:35 AM 60.8 °F 53.6 °F 77% 29.93 in 10.0 mi North 9.2 mph - N/A   Clear
5:55 AM 60.8 °F 55.4 °F 82% 29.93 in 10.0 mi North 6.9 mph - N/A   Clear
6:15 AM 60.8 °F 55.4 °F 82% 29.94 in 10.0 mi North 5.8 mph - N/A   Clear
6:35 AM 59.0 °F 55.4 °F 88% 29.95 in 10.0 mi North - - N/A   Clear
6:45 AM 60.8 °F 55.4 °F 82% 29.95 in 10.0 mi NNW 6.9 mph - N/A   Clear
6:55 AM 60.8 °F 55.4 °F 82% 29.96 in 10.0 mi North 5.8 mph - N/A   Clear
7:45 AM 64.4 °F 57.2 °F 77% 29.96 in 10.0 mi North 9.2 mph - N/A   Clear
8:45 AM 69.8 °F 53.6 °F 56% 29.97 in 10.0 mi North 11.5 mph - N/A   Clear
9:45 AM 73.4 °F 51.8 °F 47% 29.98 in 10.0 mi North 11.5 mph - N/A   Clear
10:45 AM 78.8 °F 51.8 °F 39% 29.99 in 10.0 mi North 13.8 mph - N/A   Clear
11:45 AM 82.4 °F 48.2 °F 30% 29.98 in 10.0 mi North 13.8 mph - N/A   Clear
1:45 PM 89.6 °F 46.4 °F 22% 29.95 in 10.0 mi NW 9.2 mph - N/A   Clear
2:45 PM 91.4 °F 46.4 °F 21% 29.93 in 10.0 mi NW 9.2 mph - N/A   Clear
3:45 PM 91.4 °F 44.6 °F 20% 29.91 in 10.0 mi North 11.5 mph - N/A   Clear
5:45 PM 91.4 °F 42.8 °F 18% 29.89 in 10.0 mi North 11.5 mph - N/A   Clear
6:45 PM 84.2 °F 48.2 °F 29% 29.88 in 10.0 mi North 10.4 mph - N/A   Clear
7:45 PM 78.8 °F 48.2 °F 34% 29.89 in 10.0 mi North 10.4 mph - N/A   Clear
8:45 PM 73.4 °F 48.2 °F 41% 29.91 in 10.0 mi North 8.1 mph - N/A   Clear
9:15 PM 73.4 °F 48.2 °F 41% 29.92 in 10.0 mi North - - N/A   Clear
9:35 PM 71.6 °F 46.4 °F 41% 29.93 in 10.0 mi North 8.1 mph - N/A   Clear
9:55 PM 71.6 °F 48.2 °F 43% 29.93 in 10.0 mi North 9.2 mph - N/A   Clear
10:15 PM 69.8 °F 48.2 °F 46% 29.94 in 10.0 mi North 9.2 mph - N/A   Clear
10:35 PM 69.8 °F 48.2 °F 46% 29.94 in 10.0 mi North 9.2 mph - N/A   Clear
10:55 PM 69.8 °F 48.2 °F 46% 29.95 in 10.0 mi North 9.2 mph - N/A   Clear
11:15 PM 68.0 °F 48.2 °F 49% 29.95 in 10.0 mi North 8.1 mph - N/A   Clear
11:35 PM 66.2 °F 50.0 °F 56% 29.95 in 10.0 mi North - - N/A   Clear
11:55 PM 66.2 °F 50.0 °F 56% 29.95 in 10.0 mi North - - N/A   Clear